TimeEST,TemperatureF,Dew PointF,Humidity,Sea Level PressureIn,VisibilityMPH,Wind Direction,Wind SpeedMPH,Gust SpeedMPH,PrecipitationIn,Events,Conditions,WindDirDegrees,DateUTC
12:16 AM,32.0,28.4,87,29.91,2.0,NW,3.5,-,0.00,Snow,Light Snow,320,2012-12-11 05:16:00
12:26 AM,32.0,28.4,87,29.91,7.0,Calm,Calm,-,0.00,Snow,Light Snow,0,2012-12-11 05:26:00
12:54 AM,32.0,28.9,88,29.94,10.0,SW,4.6,-,0.00,,Overcast,220,2012-12-11 05:54:00
1:54 AM,30.9,28.9,92,29.93,3.0,WSW,6.9,-,0.00,Snow,Light Snow,240,2012-12-11 06:54:00
2:30 AM,32.0,28.4,87,29.92,2.5,West,6.9,-,0.00,Snow,Light Snow,260,2012-12-11 07:30:00
2:37 AM,32.0,28.4,87,29.92,2.0,West,10.4,-,0.00,Snow,Light Snow,270,2012-12-11 07:37:00
2:41 AM,30.2,28.4,93,29.92,1.2,West,9.2,-,0.01,Snow,Light Snow,270,2012-12-11 07:41:00
2:43 AM,30.2,28.4,93,29.92,1.0,West,9.2,-,0.01,Snow,Light Snow,270,2012-12-11 07:43:00
2:54 AM,30.9,28.9,92,29.96,1.5,West,8.1,-,0.01,Snow,Light Snow,270,2012-12-11 07:54:00
2:56 AM,30.2,28.4,93,29.93,3.0,West,6.9,-,0.00,Snow,Light Snow,280,2012-12-11 07:56:00
3:09 AM,30.2,28.4,93,29.94,6.0,WSW,6.9,-,0.00,Snow,Light Snow,240,2012-12-11 08:09:00
3:20 AM,30.2,28.4,93,29.94,6.0,SW,5.8,-,0.00,,Overcast,230,2012-12-11 08:20:00
3:41 AM,30.2,28.4,93,29.94,9.0,WSW,10.4,-,0.00,Snow,Light Snow,250,2012-12-11 08:41:00
3:54 AM,30.9,27.0,85,29.98,9.0,WSW,9.2,-,0.00,,Overcast,240,2012-12-11 08:54:00
4:54 AM,28.9,24.1,82,29.98,10.0,SW,9.2,-,N/A,,Partly Cloudy,230,2012-12-11 09:54:00
5:54 AM,27.0,21.9,81,29.99,8.0,WSW,9.2,-,N/A,,Clear,240,2012-12-11 10:54:00
6:54 AM,27.0,21.9,81,30.01,10.0,SW,9.2,-,N/A,,Partly Cloudy,230,2012-12-11 11:54:00
7:54 AM,28.9,25.0,85,30.04,9.0,WSW,10.4,-,N/A,,Overcast,240,2012-12-11 12:54:00
8:54 AM,28.9,25.0,85,30.05,7.0,SW,12.7,-,N/A,,Overcast,230,2012-12-11 13:54:00
9:54 AM,28.9,25.0,85,30.06,8.0,SW,11.5,-,N/A,,Scattered Clouds,230,2012-12-11 14:54:00
10:54 AM,30.0,23.0,75,30.07,10.0,SSW,8.1,-,N/A,,Partly Cloudy,210,2012-12-11 15:54:00
11:15 AM,30.2,24.8,80,30.05,10.0,SW,12.7,-,N/A,,Mostly Cloudy,220,2012-12-11 16:15:00
11:54 AM,30.0,23.0,75,30.08,10.0,SSW,12.7,-,N/A,,Mostly Cloudy,210,2012-12-11 16:54:00
12:34 PM,30.2,21.2,69,30.05,10.0,SSW,15.0,-,N/A,,Partly Cloudy,210,2012-12-11 17:34:00
12:54 PM,30.0,21.0,69,30.07,10.0,SW,16.1,-,N/A,,Clear,230,2012-12-11 17:54:00
1:54 PM,30.9,21.0,67,30.07,10.0,SW,15.0,-,N/A,,Scattered Clouds,220,2012-12-11 18:54:00
2:54 PM,32.0,21.0,64,30.06,10.0,SW,15.0,-,N/A,,Clear,220,2012-12-11 19:54:00
3:54 PM,33.1,21.0,61,30.07,10.0,SW,16.1,25.3,N/A,,Clear,230,2012-12-11 20:54:00
4:54 PM,32.0,21.0,64,30.08,10.0,SSW,13.8,21.9,N/A,,Clear,210,2012-12-11 21:54:00
5:54 PM,30.9,21.9,69,30.09,10.0,SSW,10.4,-,N/A,,Clear,200,2012-12-11 22:54:00
6:54 PM,30.0,21.9,72,30.11,10.0,SSW,9.2,-,N/A,,Clear,210,2012-12-11 23:54:00
7:54 PM,30.0,21.9,72,30.12,10.0,SSW,9.2,-,N/A,,Clear,210,2012-12-12 00:54:00
8:54 PM,28.9,21.9,75,30.15,10.0,SSW,9.2,-,N/A,,Clear,210,2012-12-12 01:54:00
9:54 PM,28.9,21.9,75,30.16,10.0,SW,9.2,-,N/A,,Clear,220,2012-12-12 02:54:00
10:54 PM,28.0,21.9,78,30.18,10.0,SSW,6.9,-,N/A,,Clear,210,2012-12-12 03:54:00
11:54 PM,27.0,21.9,81,30.19,10.0,SSW,9.2,-,N/A,,Clear,210,2012-12-12 04:54:00